Location: Exeidioux
(45.6312°N, 1.6819°E)
Time: 14:16:20
(UTC+00:00)

SJ 16-02 - Pass Details

Date: 03 March 2021
Orbit: 605 x 617 km, 75.0° (Epoch: 16 April)

Event Time Altitude Azimuth Distance (km) Brightness Sun altitude
Rises 19:34:24 0° 348° (NNW) 2,883 5.1 -20.2°
Reaches altitude 10° 19:36:55 10° 0° (N) 1,976 4.1 -20.6°
Enters shadow 19:39:33 25° 33° (NNE) 1,253 2.7 -21.1°
